STARLINK-3904 (52464 NORAD) Tracking and Keplerian Element Data

This shows tracking and keplerian element data for the satellite.

Feedback or suggestion? Click here.




ElementValue
Catalog52464
NameSTARLINK-3904
Epoch Orbit130
Epoch Day167.08334491
Epoch Year2022
RAAN65.0103
Inclination53.2173
Eccentricity0.000194
Argument of Perigee33.4686
Mean Anonmoly102.2681
Mean Motion15.73187876
Decay Rate0.0008672
L11 52464U 22049P 22167.08334491 .00086720 00000+0 61624-3 0 9992
L22 52464 53.2173 65.0103 0001940 33.4686 102.2681 15.73187876 1300

Live tracking and technical data element details for STARLINK-3904 (NORAD 52464). STARLINK-3904 can be tracked NOW for your location showing map with azimuth and elevation plus other details from your city location.

Track the satellite on the map from your city or location and see movement details for azimuth, elevation, latitude, longitude, range, height, and movement on the map or in text.







IsCatalogInMostPopularTable: catalog: 52464, numindb: 4
Update: records affected: 1



GetName: 52464 STARLINK-3904

Hit Count: updated at: Mon, 27 Jun 2022 06:32:41 GMT